Location: Unspecified
(0.0000°N, 0.0000°E)
Time: 18:52:27
(UTC+00:00)

deb Delta 126 - Pass Details

Date: 22 February 2026
Orbit: 1501 x 1634 km, 102.6° (Epoch: 11 March)

Event Time Altitude Azimuth Distance (km) Brightness Sun altitude
Rises 05:42:30 0° 344° (NNW) 4,783 ? -7.6°
Reaches altitude 10° 05:46:44 10° 326° (NW) 3,778 ? -6.6°
Maximum altitude 05:51:54 17° 289° (WNW) 3,220 ? -5.3°
Drops below altitude 10° 05:57:03 10° 252° (WSW) 3,726 ? -4.1°
Sets 06:01:14 0° 233° (SW) 4,689 ? -3.0°
